📊 Raw Sensor Data
Showing records 39901 to 39925 of 84,953 total
| ID | Distance (ft) | Battery V | Battery A | Int Temp (°F) | Int Humid (%) | Ext Temp (°F) | Solar V | RSSI | SNR | Time Stamp |
|---|---|---|---|---|---|---|---|---|---|---|
| 45065 | 15.2 | 4.10 | 0 | 95 | 43 | 87 | 5.10 | -72 | 8 | 07/01/2025 01:30 PM |
| 45064 | 15.2 | 3.91 | 0 | 95 | 43 | 88 | 5.10 | -75 | 7 | 07/01/2025 01:15 PM |
| 45063 | 15.2 | 4.08 | 0 | 94 | 43 | 89 | 5.20 | -68 | 8 | 07/01/2025 01:00 PM |
| 45062 | 15.2 | 4.11 | 0 | 92 | 43 | 89 | 5.10 | -68 | 7 | 07/01/2025 12:45 PM |
| 45061 | 15.2 | 3.91 | 0 | 90 | 44 | 88 | 5.10 | -68 | 7 | 07/01/2025 12:30 PM |
| 45060 | 15.2 | 3.91 | 0 | 89 | 44 | 88 | 5.10 | -68 | 8 | 07/01/2025 12:15 PM |
| 45059 | 15.2 | 3.91 | 0 | 88 | 44 | 89 | 5.10 | -68 | 8 | 07/01/2025 12:00 PM |
| 45058 | 15.2 | 3.91 | 0 | 87 | 44 | 88 | 5.10 | -68 | 7 | 07/01/2025 11:45 AM |
| 45057 | 15.2 | 3.91 | 0 | 85 | 44 | 87 | 5.10 | -68 | 7 | 07/01/2025 11:30 AM |
| 45056 | 15.3 | 3.91 | 0 | 85 | 43 | 87 | 5.10 | -69 | 8 | 07/01/2025 11:15 AM |
| 45055 | 15.3 | 3.91 | 0 | 84 | 43 | 88 | 5.10 | -67 | 8 | 07/01/2025 11:00 AM |
| 45054 | 15.3 | 3.96 | 0 | 82 | 43 | 86 | 5.10 | -69 | 8 | 07/01/2025 10:45 AM |
| 45053 | 15.3 | 4.08 | 0 | 81 | 43 | 84 | 5.10 | -68 | 8 | 07/01/2025 10:30 AM |
| 45052 | 15.4 | 4.11 | 0 | 79 | 43 | 83 | 5.10 | -69 | 8 | 07/01/2025 10:00 AM |
| 45051 | 15.3 | 3.91 | 0 | 76 | 44 | 79 | 5.10 | -68 | 8 | 07/01/2025 09:30 AM |
| 45050 | 15.3 | 3.91 | 0 | 75 | 44 | 79 | 5.10 | -67 | 7 | 07/01/2025 09:15 AM |
| 45049 | 15.3 | 3.96 | 0 | 74 | 44 | 78 | 5.10 | -68 | 8 | 07/01/2025 09:00 AM |
| 45048 | 15.3 | 3.88 | 0 | 73 | 44 | 77 | 5.10 | -67 | 8 | 07/01/2025 08:45 AM |
| 45047 | 15.4 | 3.91 | 0 | 72 | 43 | 77 | 5.10 | -67 | 7 | 07/01/2025 08:30 AM |
| 45046 | 15.4 | 3.90 | 0 | 70 | 43 | 76 | 5.10 | -69 | 7 | 07/01/2025 08:15 AM |
| 45045 | 15.3 | 3.88 | 0 | 68 | 44 | 72 | 5.10 | -68 | 8 | 07/01/2025 08:00 AM |
| 45044 | 15.3 | 3.88 | 0 | 67 | 43 | 70 | 5.10 | -68 | 8 | 07/01/2025 07:45 AM |
| 45043 | 15.3 | 3.88 | 0 | 66 | 43 | 70 | 5.10 | -69 | 8 | 07/01/2025 07:30 AM |
| 45042 | 15.2 | 4.20 | 10 | 65 | 42 | 67 | 5.10 | -67 | 8 | 07/01/2025 07:15 AM |
| 45041 | 15.2 | 3.89 | 12 | 63 | 42 | 65 | 4.50 | -65 | 8 | 07/01/2025 07:00 AM |